Lawrenceville, GA

3:24 AM EST on December 13, 2019 (GMT -0500)
Gwinnett County-Briscoe

Weather History for KLZU - September, 2019

Change the Weather History Date:

Wednesday, September 11, 2019

  Actual Average (WUND) Record (WUND)
Temperature  
Mean Temperature 80 °F -  
Max Temperature 93 °F - - (-1)
Min Temperature 66 °F - - (-1)
Cooling Degree Days 14    
Growing Degree Days 30 (Base 50)    
Moisture  
Dew Point 69 °F    
Average Humidity 74    
Maximum Humidity 100    
Minimum Humidity 34    
Precipitation  
Precipitation 0.00 in - - ()
Sea Level Pressure  
Sea Level Pressure 30.24 in    
Wind  
Wind Speed 1 mph (East)    
Max Wind Speed 6 mph    
Max Gust Speed -    
Visibility 8 miles    
Events      
Averages and records for this station are not official NWS values.
T = Trace of Precipitation, MM = Missing Value Source: NWS Daily Summary

Daily Weather History Graph

Daily Weather History Graph

Search for Another Location

Airport or City:

Astronomy

Sep. 11, 2019 Rise Set
Actual Time 7:16 AM EDT 7:48 PM EDT
Civil Twilight 6:51 AM EDT 8:13 PM EDT
Nautical Twilight 6:21 AM EDT 8:42 PM EDT
Astronomical Twilight 5:51 AM EDT 9:12 PM EDT
Moon 6:51 PM EDT (9/11) 4:47 AM EDT (9/11)
Length of Visible Light 13h 22m
Length of Day
12h 32m
Waxing Gibbous, 94% of the Moon is Illuminated
Sep 11
Waxing Gibbous
Sep 14
Full
Sep 21
Last Quarter
Sep 28
New
Oct 5
First Quarter

Hourly Weather History & Observations

Time (EDT) Temp. Heat Index Dew Point Humidity Pressure Visibility Wind Dir Wind Speed Gust Speed Precip Events Conditions
12:56 AM 69.1 °F - 69.1 °F 100% 30.27 in 9.0 mi Calm Calm - N/A   Clear
1:56 AM 69.1 °F - 69.1 °F 100% 30.26 in 8.0 mi Calm Calm - N/A   Clear
2:56 AM 69.1 °F - 69.1 °F 100% 30.25 in 7.0 mi Calm Calm - N/A   Clear
3:56 AM 68.0 °F - 68.0 °F 100% 30.25 in 8.0 mi Calm Calm - N/A   Clear
4:56 AM 68.0 °F - 68.0 °F 100% 30.26 in 7.0 mi Calm Calm - N/A   Clear
5:56 AM 68.0 °F - 68.0 °F 100% 30.28 in 6.0 mi Calm Calm - N/A   Clear
6:56 AM 66.9 °F - 66.9 °F 100% 30.30 in 8.0 mi Calm Calm - N/A   Clear
7:56 AM 69.1 °F - 69.1 °F 100% 30.31 in 7.0 mi Calm Calm - N/A   Clear
8:56 AM 75.0 °F - 71.1 °F 87% 30.33 in 10.0 mi Calm Calm - N/A   Clear
9:56 AM 79.0 °F - 72.0 °F 79% 30.33 in 10.0 mi East 3.5 mph - N/A   Clear
10:56 AM 82.9 °F 88.0 °F 72.0 °F 69% 30.32 in 10.0 mi Calm Calm - N/A   Clear
11:56 AM 84.9 °F 90.7 °F 72.0 °F 65% 30.31 in 10.0 mi Calm Calm - N/A   Scattered Clouds
12:56 PM 86.0 °F 91.5 °F 71.1 °F 61% 30.29 in 7.0 mi Calm Calm - N/A   Mostly Cloudy
1:56 PM 90.0 °F 94.5 °F 69.1 °F 50% 30.27 in 10.0 mi SE 4.6 mph - N/A   Mostly Cloudy
2:56 PM 90.0 °F 93.6 °F 68.0 °F 48% 30.23 in 7.0 mi Calm Calm - N/A   Clear
2:59 PM 89.6 °F 93.4 °F 68.0 °F 49% 30.23 in 1.8 mi Variable 4.6 mph - N/A   Haze
3:01 PM 91.4 °F 95.4 °F 68.0 °F 46% 30.23 in 7.0 mi East 5.8 mph - N/A   Clear
3:56 PM 93.0 °F 95.9 °F 66.0 °F 41% 30.20 in 7.0 mi Calm Calm - N/A   Clear
4:56 PM 93.0 °F 95.0 °F 64.9 °F 39% 30.19 in 7.0 mi Variable 4.6 mph - N/A   Clear
5:56 PM 93.0 °F 93.0 °F 61.0 °F 34% 30.17 in 10.0 mi Calm Calm - N/A   Clear
6:56 PM 90.0 °F 91.7 °F 64.9 °F 43% 30.17 in 7.0 mi East 3.5 mph - N/A   Clear
7:56 PM 82.0 °F 84.9 °F 68.0 °F 62% 30.16 in 10.0 mi Calm Calm - N/A   Clear
8:56 PM 77.0 °F - 70.0 °F 79% 30.17 in 10.0 mi Calm Calm - N/A   Clear
9:56 PM 75.0 °F - 70.0 °F 84% 30.18 in 10.0 mi Calm Calm - N/A   Clear
10:56 PM 73.9 °F - 70.0 °F 87% 30.19 in 10.0 mi Calm Calm - N/A   Clear
11:56 PM 72.0 °F - 70.0 °F 93% 30.19 in 10.0 mi Calm Calm - N/A   Clear